Theta_e
340 339 338 334 337 335 333 339 346 353 355 355 359 360 360 360 358 358 354 353 351 350 349 350 350 353 349 352 351 351 351 351 350
335 334 339 338 344 345 344 343 348 351 355 356 359 358 358 358 360 359 357 354 352 351 334 345 353 340 342 351 355 352 351 351 351
335 334 328 328 342 342 344 346 347 352 358 356 360 360 358 358 358 359 359 357 354 351 342 342 351 350 349 351 353 353 352 350 350
324 323 319 328 338 341 341 346 346 346 351 353 352 355 353 356 358 359 359 357 357 354 352 353 352 351 349 349 350 351 348 347 348
331 321 326 335 338 330 331 338 345 344 347 344 346 348 350 356 355 353 352 353 354 354 353 346 351 344 352 350 351 349 346 345 346
333 334 336 337 336 325 331 332 338 340 341 341 347 349 350 350 351 351 351 352 353 352 348 346 349 348 350 350 349 351 350 347 346
321 334 336 335 334 328 324 325 338 335 335 335 340 346 350 349 348 347 348 350 351 351 350 345 344 346 350 348 348 350 349 347 344
324 328 331 332 333 331 325 333 333 331 332 333 334 336 341 343 345 345 348 349 349 349 348 352 347 342 346 342 340 341 333 334 332
320 324 327 327 330 330 329 330 330 331 331 331 333 332 334 336 339 342 343 343 344 348 345 340 337 333 339 342 346 334 333 335 332
323 322 323 324 326 326 325 325 329 332 334 332 332 332 332 334 336 337 337 339 341 342 344 341 337 336 337 337 341 331 333 335 337
320 322 323 324 324 325 325 323 323 329 327 329 331 331 331 333 335 335 335 337 335 336 340 341 347 345 344 342 341 329 329 335 328
316 317 318 320 319 320 321 323 324 324 325 327 329 330 332 335 335 334 335 335 335 335 335 336 338 342 342 346 343 328 326 333 329
316 317 317 317 319 320 319 321 323 323 323 325 327 328 329 333 335 334 333 333 333 335 336 336 337 336 337 336 340 333 325 332 334
317 318 318 320 320 319 321 323 324 323 325 325 329 331 331 332 332 332 333 333 334 333 332 333 332 333 333 331 334 340 324 324 340
319 319 321 322 321 321 322 324 325 323 326 331 330 329 333 334 334 335 332 329 329 330 330 330 330 329 331 334 335 330 323 322 329
319 320 320 322 321 322 324 326 327 325 325 327 329 328 327 329 330 332 331 328 327 327 328 328 327 327 327 329 333 335 325 321 323
319 320 321 322 322 321 322 324 326 327 326 327 326 325 325 326 327 326 328 329 328 327 326 326 326 326 326 327 326 327 327 326 325
316 317 317 318 318 319 320 323 323 325 325 327 326 326 326 325 325 325 326 326 326 326 327 326 326 325 327 326 325 327 322 323 330
317 317 318 317 317 319 319 321 323 324 325 324 323 322 325 326 326 326 326 326 324 316 313 312 309 309 316 324 315 312 305 308 310
316 317 319 319 319 320 321 321 322 324 325 325 324 323 323 324 321 324 324 324 323 321 320 309 305 304 305 303 309 305 302 302 305
Wind_Speed
17 12 7 18 14 13 3 15 9 12 10 8 9 9 10 8 8 5 5 6 6 7 5 6 7 7 9 13 11 9 8 7 7
11 14 3 11 10 16 8 7 8 10 11 12 10 8 7 7 8 7 6 8 6 5 5 3 5 11 14 15 11 10 10 9 11
8 5 5 6 9 12 10 8 7 3 6 6 12 9 8 7 7 7 7 7 7 6 6 4 9 10 10 11 11 10 10 9 9
8 7 6 4 7 11 15 10 8 6 4 5 4 6 5 8 7 7 7 6 7 6 8 10 0 4 7 7 7 8 7 7 8
8 6 4 4 13 11 12 13 14 8 7 6 4 4 5 5 7 6 6 6 6 4 4 5 10 11 9 3 5 5 6 6 6
10 12 10 9 8 7 8 4 6 6 6 7 8 7 7 4 3 5 5 4 3 1 4 5 7 7 7 5 5 6 6 6 6
7 10 10 7 5 5 7 8 7 3 4 6 6 8 7 5 4 3 1 2 2 4 5 6 5 6 3 1 3 2 1 4 4
8 8 10 9 9 8 10 9 4 3 3 3 3 6 6 6 3 4 3 1 2 1 2 2 4 4 2 1 2 3 4 1 2
6 7 6 6 7 8 8 8 7 7 6 4 2 2 4 6 7 7 5 4 3 2 1 2 3 3 5 5 3 7 6 6 4
2 2 3 5 6 5 2 2 2 3 5 5 4 4 4 5 5 6 6 6 6 5 4 4 6 5 6 6 5 9 4 5 1
8 8 7 7 4 3 4 3 1 6 6 6 7 8 7 7 6 6 6 6 6 5 3 4 5 6 7 6 6 11 9 9 5
6 8 6 4 4 3 4 4 4 3 4 4 3 5 6 6 6 6 5 6 7 6 4 5 5 5 5 6 7 15 14 9 6
8 8 6 7 7 5 5 6 5 5 6 6 7 8 8 7 7 7 7 7 7 5 5 5 5 7 6 8 7 15 20 13 5
9 7 9 9 9 7 8 8 6 6 6 7 7 7 7 7 7 7 7 6 5 6 7 8 6 7 7 8 7 7 15 23 13
8 9 10 9 8 7 7 6 5 4 4 5 5 5 6 7 8 7 7 7 6 6 6 6 7 9 9 8 11 13 17 21 22
7 9 8 9 9 11 11 11 8 9 8 7 6 7 7 8 8 9 8 7 8 5 6 6 7 8 8 8 5 7 14 23 27
12 12 11 12 14 12 12 10 11 10 8 8 7 8 8 6 7 10 8 7 7 8 8 8 8 8 8 8 9 10 3 4 10
12 12 14 13 14 15 15 12 12 11 11 10 11 11 10 10 9 10 10 8 9 9 10 10 8 7 7 9 8 4 7 5 4
12 14 14 13 14 15 16 15 15 14 13 11 12 12 11 8 7 7 7 8 8 12 15 14 15 14 12 11 11 8 12 10 12
14 13 15 15 15 15 15 15 15 14 12 12 13 12 11 9 9 9 9 8 7 9 8 11 12 15 18 14 18 11 13 12 9
Wind_Direction
83 86 59 159 212 230 268 238 162 160 162 160 175 178 200 192 197 202 197 199 194 196 197 206 180 115 311 251 222 208 206 215 227
81 84 221 50 34 70 118 263 172 165 169 172 158 189 193 203 201 192 202 220 210 185 206 235 179 193 212 230 210 208 209 223 225
103 74 15 38 48 53 33 60 273 174 204 236 145 191 204 206 211 201 209 212 224 195 220 231 240 199 214 222 215 220 204 221 233
135 128 132 95 76 70 30 24 66 36 355 284 252 220 203 211 199 212 204 214 218 214 194 212 331 26 247 200 219 223 225 224 221
157 139 93 108 79 73 44 23 354 356 11 21 351 317 295 226 189 198 203 223 229 240 250 140 122 246 256 206 244 247 228 225 246
100 118 98 95 82 73 98 99 275 343 12 21 357 355 322 8 315 220 215 239 258 204 169 200 191 208 243 215 225 228 236 203 213
86 103 113 107 102 132 159 218 246 28 29 24 3 3 3 37 37 53 144 191 262 249 195 218 234 254 264 245 199 199 267 342 323
64 101 117 142 162 178 193 199 190 188 153 95 23 15 346 355 346 342 19 289 285 168 303 237 96 54 47 170 189 124 135 114 336
36 64 90 129 158 168 178 193 198 200 183 158 138 3 336 332 341 345 346 335 334 179 264 185 199 234 227 220 188 206 265 83 0
60 78 54 64 85 101 118 140 196 179 195 185 176 190 257 292 308 319 318 319 335 327 258 227 229 223 226 239 195 228 295 2 181
34 26 20 15 16 343 312 43 158 171 187 202 204 209 218 234 241 258 282 296 294 296 308 287 248 222 215 211 210 203 176 199 89
9 354 345 338 339 321 318 316 293 305 305 273 247 244 238 236 230 244 252 271 282 278 277 287 285 268 251 216 213 207 185 192 209
358 347 332 318 307 308 311 283 272 266 259 246 239 230 226 222 221 220 227 234 244 249 240 245 264 277 267 242 229 210 202 195 195
331 324 314 310 310 298 292 290 294 281 275 269 261 259 244 234 231 232 230 231 228 239 254 264 248 256 268 273 250 237 205 196 197
0 346 343 345 342 330 320 319 333 313 291 261 270 257 255 252 242 232 233 228 235 241 248 249 253 255 262 260 262 231 205 204 209
336 333 327 326 318 316 315 317 311 296 269 263 265 270 257 252 256 246 228 220 236 237 236 243 250 255 257 254 247 253 221 211 217
342 341 333 340 327 313 310 310 311 302 303 291 266 263 257 258 256 257 244 234 232 237 244 245 242 249 254 252 245 250 270 230 226
337 334 333 322 319 314 307 301 300 291 295 297 291 281 270 261 252 258 254 232 234 235 240 234 237 231 236 247 257 222 193 187 174
340 332 321 318 311 308 305 303 299 292 290 283 279 282 277 263 251 245 244 249 254 240 235 239 237 234 234 258 241 202 191 201 203
321 323 321 316 308 303 302 302 297 294 300 293 282 273 273 269 262 261 257 253 242 255 259 240 241 254 251 225 247 229 199 193 205